Погода в Карабудахкенте

Россия / Республика Дагестан     42°42′36″N   47°33′54″E
темп.,
°C
ветер,
м/с
пор.,
м/с
влажн.,
%
обл.,
%
осадки,
мм/ч
давл.,
гПа
погр.,
м
6 марта, сб
сб600:00+3ююв22640 0.0 102025
03:00+3ююз12510 0.0 102022
06:00+3ююз12420 0.0 102023
09:00+9юв22300 0.0 1019117
12:00+11вюв34340 0.0 1017342
15:00+11вюв45410 0.0 1014308
18:00+7юв236720 0.0 101455
21:00+7юв236327 0.0 101343
7 марта, вс
вс700:00+7юз2248100 0.0 101127
03:00+7з333792 0.0 101125
06:00+6сз12205898 0.0 1014686
09:00+1сз12188399 0.2 10191143
12:00+3ссз12166045 0.1 10211346
15:00+3ссз9115072 0.4 10221401
18:00+1с344486 0.1 10231094
21:00−1вюв236262 0.1 1024211
8 марта, пн
пн800:00−1юв346713 0.0 1023182
03:00−2юв23726 0.0 1022133
06:00−2вюв24730 0.0 1022163
09:00+2вюв69590 0.0 1021713
12:00+4вюв895618 0.0 1018872
15:00+3вюв786660 0.0 1016781
18:00+1вюв4584100 0.0 1017474
21:00+1в0195100 0.2 1017108
9 марта, вт
вт900:000ссз2297100 2.3 1017148
03:000с2398100 4.3 1017199
06:00−1ссз129298 0.4 1017141
09:00+1вюв117376 0.4 1018407
12:00+3вюв446217 0.0 1017721
15:00+3вюв55628 0.0 1016671
18:00+1юв357423 0.0 1017248
21:00+1юв238059 0.0 1019125
10 марта, ср
ср1000:000ю117776 0.0 101832
03:00+1зюз126580 0.0 101927
06:000зюз225737 0.0 102026
09:00+2ссз677036 0.0 1020748
12:00+1ссз468892 0.3 1021515
15:00+2ссз467495 0.9 1021813
18:00−1всв1286100 0.6 1022279
21:00−2вюв228398 1.0 1023293